DELTA 1 DEB, 10240

Orbit data source: Space-Track

DELTA 1 DEB, 10240 is space debris in LEO originally from a launch on Thu, 14 Jul 1977 UTC launched from the Air Force Eastern Test Range (AFETR). Debris objects in space refer to the collection of defunct objects orbiting the Earth. Examples of debris include non-operational satellites, rocket bodies, and fragments generated from explosions, collisions, or faulty payload assembly.

Loading next visibility...
Identifier
10240, 1977-065BR
Orbit
LEO
Country
Flag of USUS
Related business
Manufacturer
Unknown
Mission
Spacecraft
Bus & Motor
Unknown
Mass
Unknown
Launch date (UTC)
1977-07-14 (48 years ago)
Launch vehicle
Unknown
Launch site
Air Force Eastern Test Range (AFETR)
Object type
Payload
Rocket body
Debris
Shape & HBR
Unknown shape, 0.1 m
Radar Cross Section
Small (<0.1 m²)

Expand to show TLE details & history
Last TLE update: 8 hours ago

TLE from 8 hours ago
0 DELTA 1 DEB
1 10240U 77065BR  25298.40281208  .00005924  00000-0  42077-2 0  9995
2 10240  29.3924 334.4425 0668414 325.0444  30.7929 13.22169342 23350
Epoch: 2025-10-25T09:40Z
TLE epoch observation values (Epoch: 2025-10-25T09:40:02.963Z)
Latitude
0.00001°
Longitude
155.3963°
Altitude
750.934 km
Speed
7.688 km/s
True Right ascension
22h 17m 46s
True Declination
0° 00' 00"
Sunlit
Object was in full shadow at epoch
Visualization orbit readout
Latitude
Unknown
Longitude
Unknown
Altitude
Unknown
Speed
Unknown
Apparent Right ascension
Unknown
Apparent Declination
Unknown
Sunlit
N/A
Visualization observer readout
Local Sidereal Time
12:37:23
Azimuth
Unknown
Elevation
Unknown
Doppler factor
Unknown
Orbital elements
Apogee altitude
1,685.41 km
Perigee altitude
674.99 km
Semi-major axis
7,558.337 km
Eccentricity
0.06684
Inclination
29.3924°
RAAN
334.4425°
Arg. of periapsis
325.0444°
True anomaly
35.01237°
Mean anomaly
30.7929°
Eccentric anomaly
32.87151°
Mean motion
3.30296 °/min
Orbital period
108.99 mins
BSTAR
0.0042077
Loading maneuver chart data...
Computing Atmospheric mass density...

Documentation

Showing up to 5 results
|